Wind_Speed
55 54 55 55 55 53 53 52 51 50 48 46 46 44 43 42 41 41 40 40 39 40 39 39 39 39 38 38 37 36 35 35 34 34 34 33 33 33
55 56 56 56 55 54 54 54 53 52 51 48 47 46 45 44 43 42 43 42 42 40 40 40 40 40 40 39 39 38 37 37 36 35 35 35 35 34
55 57 57 57 57 57 56 55 55 54 52 51 49 48 47 46 45 44 44 44 44 43 42 42 41 41 41 41 41 40 40 39 38 37 37 37 37 37
54 56 57 57 57 57 57 55 54 54 53 52 51 50 50 49 48 47 46 45 45 46 45 44 43 43 43 43 43 42 41 41 40 40 40 39 40 39
54 55 55 56 57 57 57 56 55 55 55 55 53 52 52 51 50 50 48 47 46 47 47 46 45 45 44 44 45 44 43 43 42 43 43 41 42 42
54 55 55 56 56 56 56 56 57 57 57 56 55 54 53 52 53 52 51 50 49 49 49 48 47 46 46 46 46 45 45 45 44 44 44 44 43 43
54 54 54 54 55 56 56 56 57 57 58 57 56 56 55 53 53 53 53 52 51 50 49 49 49 48 48 47 46 46 46 46 46 45 45 45 45 45
52 52 53 54 55 55 56 56 56 57 57 58 57 57 57 55 54 53 54 54 52 50 50 50 51 51 50 50 48 48 49 49 48 47 48 47 47 47
51 51 53 53 55 56 56 57 57 57 57 57 57 57 57 56 56 55 55 54 54 52 52 51 52 52 51 51 50 50 50 50 50 49 49 49 49 49
52 51 53 54 54 55 56 56 56 57 57 57 57 56 57 57 56 56 55 55 55 54 53 53 52 52 52 52 52 52 51 52 52 52 51 51 50 50
52 52 52 53 54 54 54 55 56 56 56 57 57 57 57 57 58 58 57 57 58 57 55 54 53 52 52 52 53 53 53 54 54 54 53 53 52 52
55 54 53 53 54 54 53 54 54 53 54 55 56 57 58 58 58 59 58 58 58 58 57 55 54 54 54 54 55 55 55 55 55 56 55 54 53 54
54 55 54 54 54 53 53 53 53 53 54 55 56 56 57 57 57 57 57 58 58 58 58 57 56 56 56 56 57 57 58 58 57 57 56 56 56 56
52 52 53 54 53 53 53 53 54 54 54 54 54 55 56 56 57 57 57 57 58 57 56 56 56 57 58 59 59 59 60 59 59 59 58 58 58 58
52 52 52 52 53 53 53 53 54 55 55 54 54 55 55 55 56 56 56 57 58 58 58 58 58 58 58 59 60 60 60 60 60 59 59 59 59 59
51 51 51 52 54 54 54 54 54 54 54 54 54 54 54 55 56 57 57 57 58 58 58 59 58 59 58 58 59 60 60 60 60 60 59 60 60 59
49 50 50 51 52 53 53 53 53 54 54 54 54 54 55 55 56 57 56 56 57 57 57 58 58 58 58 58 58 58 58 59 59 59 59 59 59 59
48 48 49 50 50 50 51 51 52 53 53 53 54 54 55 55 55 55 55 56 56 56 56 56 56 56 55 54 54 54 55 56 57 58 58 59 58 58
46 46 47 48 48 48 49 49 50 51 52 52 53 53 53 54 54 54 54 55 55 55 55 55 55 56 55 54 52 53 53 54 55 56 57 57 57 57
42 43 44 44 46 47 47 47 48 48 49 51 52 52 52 52 52 53 53 54 54 54 54 54 55 55 55 54 53 52 53 53 53 54 55 55 55 55
41 41 41 42 43 44 44 45 46 47 47 48 49 50 50 51 51 51 51 52 53 53 53 53 53 53 54 54 53 52 53 53 54 53 53 53 53 52
38 39 39 40 42 42 43 43 44 44 45 46 46 47 47 48 49 50 49 49 50 50 50 51 51 51 52 53 53 53 53 53 53 53 52 52 51 50
35 36 37 37 39 39 41 42 42 43 44 44 45 46 46 46 47 47 48 48 48 49 49 49 49 50 51 51 52 52 52 51 51 51 51 51 50 50
Wind_Direction
245 244 244 245 246 247 247 247 247 247 247 247 248 249 250 250 251 251 251 252 253 255 256 256 256 256 256 258 261 263 265 267 269 271 273 275 277 280
246 245 246 246 245 246 246 246 247 247 247 246 247 247 248 249 250 250 250 251 254 255 256 257 257 257 257 258 260 262 264 266 267 269 271 273 275 279
248 246 246 245 245 245 246 246 246 246 247 246 247 246 246 247 249 250 250 252 254 255 256 256 257 257 257 258 259 261 263 263 265 268 270 273 275 277
250 248 247 246 245 245 246 245 245 245 245 246 247 246 247 247 248 250 251 252 254 254 255 256 257 257 257 258 259 260 262 263 264 266 269 272 274 276
250 248 247 246 245 245 245 245 244 244 245 246 247 247 248 249 249 250 251 252 254 254 255 256 257 258 258 258 259 260 261 263 264 267 269 271 272 274
250 249 248 247 246 245 245 244 244 245 246 247 248 248 249 250 250 250 251 252 254 254 255 256 257 258 258 258 259 259 260 261 264 266 268 269 271 273
250 249 248 248 246 245 245 245 245 246 246 248 249 249 249 250 250 251 252 252 253 254 256 256 257 258 258 258 258 259 260 262 263 265 266 267 270 272
250 249 248 247 245 244 245 245 245 246 247 248 249 249 249 250 251 251 251 251 252 253 254 255 257 259 259 258 259 259 260 261 263 264 265 267 269 272
251 250 248 246 244 244 243 244 245 247 247 248 249 249 250 250 250 251 252 252 253 253 254 255 257 258 258 259 259 260 261 262 263 265 267 268 270 272
250 250 248 246 245 244 244 244 245 247 247 247 247 248 249 250 251 251 253 253 253 252 253 255 256 256 258 259 259 261 261 262 264 266 267 269 270 271
250 249 248 246 246 245 244 245 245 246 246 245 246 248 249 249 250 251 251 252 252 252 253 254 255 256 257 258 259 260 261 263 264 265 266 268 270 271
248 248 248 248 247 245 245 246 245 245 246 246 247 247 248 248 249 250 251 252 253 253 253 254 255 256 257 258 259 260 261 263 265 265 266 267 269 271
249 248 249 249 247 246 247 247 246 247 247 247 247 247 247 248 249 250 251 253 254 254 255 256 257 257 258 258 259 260 261 263 264 265 265 267 269 271
249 249 249 248 247 247 247 247 247 248 248 248 248 248 248 249 249 250 251 252 253 254 256 258 259 260 260 260 260 261 261 262 263 264 265 267 268 271
248 248 248 248 247 247 246 245 247 248 248 248 249 249 249 249 249 250 251 253 253 254 256 258 260 261 262 262 261 261 261 262 263 264 266 267 269 271
247 247 247 247 247 247 246 246 247 247 246 247 248 248 249 250 250 252 253 254 254 255 256 258 259 261 263 263 262 262 262 263 263 265 266 267 269 270
247 247 247 247 246 246 246 246 246 246 245 246 247 248 249 250 250 251 253 254 255 255 256 257 259 260 261 262 263 263 263 263 263 265 267 268 270 271
247 246 246 246 246 244 244 244 244 245 245 247 248 249 250 250 251 252 253 254 255 256 256 256 257 259 260 261 262 264 264 265 265 266 267 269 270 272
247 247 247 246 245 244 244 245 245 245 246 248 249 249 249 250 252 252 253 253 254 256 256 257 257 258 259 261 262 264 266 267 268 268 269 270 271 273
247 247 246 246 246 246 247 247 246 246 247 248 249 249 251 252 252 253 253 254 255 256 257 258 259 260 260 261 262 264 266 268 270 270 270 271 273 274
248 248 247 247 246 247 248 248 247 247 248 249 249 250 251 252 253 253 254 255 255 256 258 259 260 261 261 261 263 264 266 268 270 271 272 273 274 275
249 248 247 247 247 248 248 249 249 250 250 251 251 251 251 252 253 253 254 255 255 257 259 260 261 262 262 262 264 265 267 269 269 270 271 273 275 275
249 247 246 246 247 248 249 249 250 251 251 251 252 252 252 253 253 253 254 255 256 257 259 260 261 262 263 264 265 266 266 267 269 269 270 273 275 276
Height
5664 5668 5674 5679 5683 5688 5693 5697 5702 5707 5712 5717 5720 5724 5726 5729 5732 5735 5738 5740 5742 5744 5747 5749 5751 5754 5756 5758 5760 5761 5763 5764 5764 5765 5765 5765 5765 5765
5649 5654 5659 5664 5669 5674 5679 5683 5688 5693 5698 5704 5708 5712 5715 5718 5721 5724 5727 5729 5732 5734 5736 5738 5741 5743 5745 5747 5749 5751 5752 5753 5754 5755 5756 5756 5756 5755
5635 5640 5645 5650 5655 5660 5665 5670 5675 5679 5685 5690 5695 5698 5702 5706 5709 5712 5715 5718 5720 5723 5725 5727 5729 5732 5734 5736 5739 5740 5742 5743 5744 5745 5745 5746 5746 5746
5621 5625 5630 5635 5640 5645 5650 5656 5661 5666 5671 5677 5681 5685 5690 5694 5697 5700 5703 5706 5709 5711 5713 5716 5718 5720 5723 5725 5727 5729 5731 5732 5733 5734 5735 5736 5736 5735
5607 5611 5615 5620 5625 5630 5636 5641 5647 5652 5657 5662 5668 5672 5676 5680 5684 5687 5690 5693 5696 5699 5701 5704 5706 5708 5711 5713 5715 5717 5719 5721 5722 5723 5724 5724 5724 5724
5592 5596 5601 5605 5610 5615 5621 5627 5632 5637 5642 5648 5653 5658 5662 5666 5669 5673 5677 5680 5683 5686 5688 5691 5693 5696 5698 5701 5703 5705 5707 5708 5710 5711 5712 5712 5712 5712
5578 5582 5586 5590 5595 5601 5606 5612 5617 5622 5627 5633 5638 5643 5648 5652 5655 5659 5663 5666 5670 5673 5675 5678 5681 5683 5685 5687 5690 5692 5694 5695 5697 5698 5699 5700 5700 5700
5563 5567 5571 5576 5581 5586 5591 5597 5602 5607 5613 5618 5623 5628 5633 5637 5641 5644 5648 5652 5657 5661 5662 5665 5667 5669 5672 5674 5676 5678 5680 5682 5683 5685 5686 5687 5687 5688
5548 5552 5557 5561 5566 5571 5577 5582 5587 5592 5598 5603 5608 5613 5618 5623 5627 5631 5633 5637 5642 5646 5647 5651 5653 5655 5658 5660 5662 5664 5666 5668 5670 5671 5673 5673 5674 5674
5534 5538 5542 5547 5551 5556 5562 5567 5572 5578 5583 5588 5594 5599 5602 5606 5610 5615 5618 5622 5626 5629 5632 5636 5639 5641 5643 5646 5648 5650 5651 5653 5655 5657 5658 5659 5660 5660
5520 5524 5528 5532 5537 5542 5547 5553 5558 5563 5567 5572 5577 5582 5586 5591 5595 5598 5602 5606 5610 5614 5617 5620 5623 5626 5629 5631 5633 5635 5637 5639 5640 5642 5643 5644 5645 5645
5506 5510 5513 5518 5522 5527 5532 5538 5543 5548 5552 5557 5561 5566 5570 5575 5579 5582 5586 5590 5594 5598 5602 5604 5607 5609 5613 5617 5618 5620 5622 5624 5626 5627 5628 5629 5630 5630
5491 5495 5499 5503 5508 5513 5517 5523 5528 5533 5537 5541 5545 5550 5554 5559 5563 5566 5570 5574 5578 5582 5586 5588 5591 5593 5596 5601 5604 5605 5607 5609 5610 5612 5613 5614 5614 5614
5476 5481 5485 5489 5494 5498 5503 5508 5512 5517 5522 5526 5531 5535 5540 5544 5548 5551 5555 5558 5562 5566 5570 5572 5575 5578 5580 5583 5587 5589 5591 5592 5594 5596 5597 5597 5598 5598
5461 5466 5470 5475 5479 5484 5488 5492 5497 5502 5507 5511 5516 5521 5525 5529 5533 5536 5540 5543 5547 5550 5553 5556 5559 5561 5563 5566 5570 5572 5575 5576 5578 5579 5580 5581 5581 5582
5446 5451 5455 5460 5464 5469 5474 5478 5482 5487 5492 5497 5501 5506 5510 5514 5517 5521 5525 5528 5531 5535 5537 5540 5542 5544 5547 5549 5552 5555 5557 5559 5561 5562 5563 5564 5564 5564
5432 5437 5441 5445 5450 5454 5459 5464 5468 5472 5477 5482 5487 5491 5495 5499 5502 5506 5509 5512 5516 5519 5522 5524 5526 5527 5530 5532 5535 5537 5540 5542 5544 5545 5546 5547 5547 5547
5419 5423 5427 5432 5436 5441 5445 5449 5454 5458 5463 5468 5472 5476 5480 5484 5488 5491 5494 5497 5500 5503 5506 5508 5510 5512 5514 5517 5519 5521 5523 5525 5527 5528 5529 5530 5531 5531
5406 5410 5414 5419 5423 5428 5432 5436 5440 5445 5449 5453 5458 5462 5465 5469 5473 5476 5479 5482 5485 5488 5490 5493 5495 5497 5499 5502 5505 5506 5508 5509 5510 5511 5512 5512 5513 5514
5394 5398 5402 5406 5410 5415 5419 5423 5427 5431 5435 5439 5443 5447 5451 5455 5458 5461 5464 5467 5470 5473 5475 5478 5480 5482 5485 5488 5490 5492 5492 5493 5494 5495 5496 5496 5497 5497
5384 5387 5391 5395 5399 5403 5407 5410 5414 5418 5422 5426 5430 5434 5437 5441 5444 5447 5450 5453 5455 5458 5461 5464 5465 5467 5469 5472 5474 5477 5477 5477 5477 5478 5480 5480 5481 5481
5373 5376 5380 5384 5387 5391 5395 5398 5402 5406 5409 5413 5416 5420 5423 5427 5430 5433 5436 5439 5441 5444 5446 5449 5451 5453 5455 5457 5459 5461 5462 5462 5462 5462 5463 5464 5464 5465
5364 5366 5370 5373 5377 5380 5383 5387 5390 5394 5397 5400 5403 5406 5410 5413 5416 5419 5422 5425 5427 5430 5432 5435 5437 5439 5440 5442 5444 5446 5447 5447 5448 5448 5449 5448 5449 5449